Tracking 19709 objects as of 19-Jun-2019
HD Live streaming from Space Station
objects crossing your sky now

DELTA 1 DEB

Track DELTA 1 DEB now!
10-day predictions


NORAD ID: 7174
Int'l Code: 1973-086EL
Perigee: 1,419.9 km
Apogee: 1,887.2 km
Inclination: 102.0 °
Period: 119.2 minutes
Semi major axis: 8024 km
RCS: 0.017 m2 (small)
Launch date: November 6, 1973
Source: United States (US)
Launch site: AIR FORCE WESTERN TEST RANGE (AFWTR)

Note: This is SATELLITE DEBRIS
aabbcc
Your satellite tracking list
Your tracking list is empty




NASA's NSSDC Master Catalog

Two Line Element Set (TLE):
1  7174U 73086EL  19169.45162610 -.00000037  00000-0  55095-4 0  9993
2  7174 102.0216 345.7714 0291164 302.0623  82.4097 12.07740209 22863
Source of the keplerian elements: AFSPC